User: anonymous   Login
Location: Unspecified
(0.0000°N, 0.0000°E)
Time: 12:45:44
(UTC+00:00)
Language:

Orsted - Orbit

View from above orbital plane
View from above orbital plane
View from above satellite
View from above satellite

Ground track
Ground track

The orbit data is extracted from the following two-line orbital elements,

1 25635U 99008B   18200.52687789 +.00000046 +00000-0 +18192-4 0  9995
2 25635 096.4472 017.9592 0140375 060.5211 300.9906 14.48089115023466
Epoch (UTC): 19 July 2018 12:38:42
Eccentricity: 0.0140375
inclination: 96.4472°
perigee height: 632 km
apogee height: 832 km
right ascension of ascending node: 17.9592°
argument of perigee: 60.5211°
revolutions per day: 14.48089115
mean anomaly at epoch: 300.9906°
orbit number at epoch: 2346

The dashed part of the orbit path shows where the satellite is in the earth's shadow,  

DLR